Back to catalog

SL-8 DEB

AliveLEO
NORAD 1591·DEBRIS·🇷🇺 Russia

Launched Sep 18, 1965 from Baikonur Cosmodrome

Loading…

Next Passes (next 24 hours)

TLE

FreshSource: Space-Track

Epoch: Sep 14, 2026, 01:09 UTC

1 01591U 65073H   26257.04861042 -.00000051  00000-0  29990-3 0  9993
2 01591  56.0546 272.0086 0152444  86.4666 304.9211 12.43054844759775

Track SL-8 DEB in real time with AllMySat

Download on the App Store